Year,Month,Day,Hour,Minute,Value (Times are PST for insolation in W/m^2)
2013,06,27,00,00,0.00
2013,06,27,00,01,0.00
2013,06,27,00,02,0.00
2013,06,27,00,03,0.00
2013,06,27,00,04,0.00
2013,06,27,00,05,0.00
2013,06,27,00,06,0.00
2013,06,27,00,07,0.00
2013,06,27,00,08,0.00
2013,06,27,00,09,0.00
2013,06,27,00,10,0.00
2013,06,27,00,11,0.00
2013,06,27,00,12,0.00
2013,06,27,00,13,0.00
2013,06,27,00,14,0.00
2013,06,27,00,15,0.00
2013,06,27,00,16,0.00
2013,06,27,00,17,0.00
2013,06,27,00,18,0.00
2013,06,27,00,19,0.00
2013,06,27,00,20,0.00
2013,06,27,00,21,0.00
2013,06,27,00,22,0.00
2013,06,27,00,23,0.00
2013,06,27,00,24,0.00
2013,06,27,00,25,0.00
2013,06,27,00,26,0.00
2013,06,27,00,27,0.00
2013,06,27,00,28,0.00
2013,06,27,00,29,0.00
2013,06,27,00,30,0.00
2013,06,27,00,31,0.00
2013,06,27,00,32,0.00
2013,06,27,00,33,0.00
2013,06,27,00,34,0.00
2013,06,27,00,35,0.00
2013,06,27,00,36,0.00
2013,06,27,00,37,0.00
2013,06,27,00,38,0.00
2013,06,27,00,39,0.00
2013,06,27,00,40,0.00
2013,06,27,00,41,0.00
2013,06,27,00,42,0.00
2013,06,27,00,43,0.00
2013,06,27,00,44,0.00
2013,06,27,00,45,0.00
2013,06,27,00,46,0.00
2013,06,27,00,47,0.00
2013,06,27,00,48,0.00
2013,06,27,00,49,0.00
2013,06,27,00,50,0.00
2013,06,27,00,51,0.00
2013,06,27,00,52,0.00
2013,06,27,00,53,0.00
2013,06,27,00,54,0.00
2013,06,27,00,55,0.00
2013,06,27,00,56,0.00
2013,06,27,00,57,0.00
2013,06,27,00,58,0.00
2013,06,27,00,59,0.00
2013,06,27,01,00,0.00
2013,06,27,01,01,0.00
2013,06,27,01,02,0.00
2013,06,27,01,03,0.00
2013,06,27,01,04,0.00
2013,06,27,01,05,0.00
2013,06,27,01,06,0.00
2013,06,27,01,07,0.00
2013,06,27,01,08,0.00
2013,06,27,01,09,0.00
2013,06,27,01,10,0.00
2013,06,27,01,11,0.00
2013,06,27,01,12,0.00
2013,06,27,01,13,0.00
2013,06,27,01,14,0.00
2013,06,27,01,15,0.00
2013,06,27,01,16,0.00
2013,06,27,01,17,0.00
2013,06,27,01,18,0.00
2013,06,27,01,19,0.00
2013,06,27,01,20,0.00
2013,06,27,01,21,0.00
2013,06,27,01,22,0.00
2013,06,27,01,23,0.00
2013,06,27,01,24,0.00
2013,06,27,01,25,0.00
2013,06,27,01,26,0.00
2013,06,27,01,27,0.00
2013,06,27,01,28,0.00
2013,06,27,01,29,0.00
2013,06,27,01,30,0.00
2013,06,27,01,31,0.00
2013,06,27,01,32,0.00
2013,06,27,01,33,0.00
2013,06,27,01,34,0.00
2013,06,27,01,35,0.00
2013,06,27,01,36,0.00
2013,06,27,01,37,0.00
2013,06,27,01,38,0.00
2013,06,27,01,39,0.00
2013,06,27,01,40,0.00
2013,06,27,01,41,0.00
2013,06,27,01,42,0.00
2013,06,27,01,43,0.00
2013,06,27,01,44,0.00
2013,06,27,01,45,0.00
2013,06,27,01,46,0.00
2013,06,27,01,47,0.00
2013,06,27,01,48,0.00
2013,06,27,01,49,0.00
2013,06,27,01,50,0.00
2013,06,27,01,51,0.00
2013,06,27,01,52,0.00
2013,06,27,01,53,0.00
2013,06,27,01,54,0.00
2013,06,27,01,55,0.00
2013,06,27,01,56,0.00
2013,06,27,01,57,0.00
2013,06,27,01,58,0.00
2013,06,27,01,59,0.00
2013,06,27,02,00,0.00
2013,06,27,02,01,0.00
2013,06,27,02,02,0.00
2013,06,27,02,03,0.00
2013,06,27,02,04,0.00
2013,06,27,02,05,0.00
2013,06,27,02,06,0.00
2013,06,27,02,07,0.00
2013,06,27,02,08,0.00
2013,06,27,02,09,0.00
2013,06,27,02,10,0.00
2013,06,27,02,11,0.00
2013,06,27,02,12,0.00
2013,06,27,02,13,0.00
2013,06,27,02,14,0.00
2013,06,27,02,15,0.00
2013,06,27,02,16,0.00
2013,06,27,02,17,0.00
2013,06,27,02,18,0.00
2013,06,27,02,19,0.00
2013,06,27,02,20,0.00
2013,06,27,02,21,0.00
2013,06,27,02,22,0.00
2013,06,27,02,23,0.00
2013,06,27,02,24,0.00
2013,06,27,02,25,0.00
2013,06,27,02,26,0.00
2013,06,27,02,27,0.00
2013,06,27,02,28,0.00
2013,06,27,02,29,0.00
2013,06,27,02,30,0.00
2013,06,27,02,31,0.00
2013,06,27,02,32,0.00
2013,06,27,02,33,0.00
2013,06,27,02,34,0.00
2013,06,27,02,35,0.00
2013,06,27,02,36,0.00
2013,06,27,02,37,0.00
2013,06,27,02,38,0.00
2013,06,27,02,39,0.00
2013,06,27,02,40,0.00
2013,06,27,02,41,0.00
2013,06,27,02,42,0.00
2013,06,27,02,43,0.00
2013,06,27,02,44,0.00
2013,06,27,02,45,0.00
2013,06,27,02,46,0.00
2013,06,27,02,47,0.00
2013,06,27,02,48,0.00
2013,06,27,02,49,0.00
2013,06,27,02,50,0.00
2013,06,27,02,51,0.00
2013,06,27,02,52,0.00
2013,06,27,02,53,0.00
2013,06,27,02,54,0.00
2013,06,27,02,55,0.00
2013,06,27,02,56,0.00
2013,06,27,02,57,0.00
2013,06,27,02,58,0.00
2013,06,27,02,59,0.00
2013,06,27,03,00,0.00
2013,06,27,03,01,0.00
2013,06,27,03,02,0.00
2013,06,27,03,03,0.00
2013,06,27,03,04,0.00
2013,06,27,03,05,0.00
2013,06,27,03,06,0.00
2013,06,27,03,07,0.00
2013,06,27,03,08,0.00
2013,06,27,03,09,0.00
2013,06,27,03,10,0.00
2013,06,27,03,11,0.00
2013,06,27,03,12,0.00
2013,06,27,03,13,0.00
2013,06,27,03,14,0.00
2013,06,27,03,15,0.00
2013,06,27,03,16,0.00
2013,06,27,03,17,0.00
2013,06,27,03,18,0.00
2013,06,27,03,19,0.00
2013,06,27,03,20,0.00
2013,06,27,03,21,0.00
2013,06,27,03,22,0.00
2013,06,27,03,23,0.00
2013,06,27,03,24,0.00
2013,06,27,03,25,0.00
2013,06,27,03,26,0.00
2013,06,27,03,27,0.00
2013,06,27,03,28,0.00
2013,06,27,03,29,0.00
2013,06,27,03,30,0.00
2013,06,27,03,31,0.00
2013,06,27,03,32,0.00
2013,06,27,03,33,0.00
2013,06,27,03,34,0.00
2013,06,27,03,35,0.00
2013,06,27,03,36,0.00
2013,06,27,03,37,0.00
2013,06,27,03,38,0.00
2013,06,27,03,39,0.00
2013,06,27,03,40,0.00
2013,06,27,03,41,0.00
2013,06,27,03,42,0.00
2013,06,27,03,43,0.00
2013,06,27,03,44,0.00
2013,06,27,03,45,0.00
2013,06,27,03,46,0.00
2013,06,27,03,47,0.00
2013,06,27,03,48,0.00
2013,06,27,03,49,0.00
2013,06,27,03,50,0.00
2013,06,27,03,51,0.00
2013,06,27,03,52,0.00
2013,06,27,03,53,0.00
2013,06,27,03,54,0.00
2013,06,27,03,55,0.00
2013,06,27,03,56,0.00
2013,06,27,03,57,0.00
2013,06,27,03,58,0.00
2013,06,27,03,59,0.00
2013,06,27,04,00,0.00
2013,06,27,04,01,0.00
2013,06,27,04,02,0.00
2013,06,27,04,03,0.00
2013,06,27,04,04,0.00
2013,06,27,04,05,0.00
2013,06,27,04,06,0.00
2013,06,27,04,07,0.00
2013,06,27,04,08,0.00
2013,06,27,04,09,0.00
2013,06,27,04,10,0.00
2013,06,27,04,11,0.00
2013,06,27,04,12,0.00
2013,06,27,04,13,0.00
2013,06,27,04,14,0.00
2013,06,27,04,15,0.00
2013,06,27,04,16,0.00
2013,06,27,04,17,0.00
2013,06,27,04,18,0.00
2013,06,27,04,19,0.00
2013,06,27,04,20,0.00
2013,06,27,04,21,0.00
2013,06,27,04,22,0.00
2013,06,27,04,23,0.00
2013,06,27,04,24,0.00
2013,06,27,04,25,0.00
2013,06,27,04,26,0.00
2013,06,27,04,27,0.00
2013,06,27,04,28,0.00
2013,06,27,04,29,0.00
2013,06,27,04,30,0.00
2013,06,27,04,31,0.00
2013,06,27,04,32,0.00
2013,06,27,04,33,0.00
2013,06,27,04,34,0.00
2013,06,27,04,35,0.00
2013,06,27,04,36,0.00
2013,06,27,04,37,0.00
2013,06,27,04,38,0.00
2013,06,27,04,39,0.00
2013,06,27,04,40,0.00
2013,06,27,04,41,0.00
2013,06,27,04,42,0.00
2013,06,27,04,43,0.00
2013,06,27,04,44,0.00
2013,06,27,04,45,0.00
2013,06,27,04,46,0.00
2013,06,27,04,47,0.00
2013,06,27,04,48,0.00
2013,06,27,04,49,0.00
2013,06,27,04,50,0.00
2013,06,27,04,51,0.00
2013,06,27,04,52,0.00
2013,06,27,04,53,0.00
2013,06,27,04,54,0.00
2013,06,27,04,55,0.00
2013,06,27,04,56,0.00
2013,06,27,04,57,0.00
2013,06,27,04,58,0.00
2013,06,27,04,59,0.00
2013,06,27,05,00,0.00
2013,06,27,05,01,0.00
2013,06,27,05,02,0.00
2013,06,27,05,03,0.00
2013,06,27,05,04,0.00
2013,06,27,05,05,0.00
2013,06,27,05,06,0.00
2013,06,27,05,07,0.00
2013,06,27,05,08,0.00
2013,06,27,05,09,0.00
2013,06,27,05,10,0.00
2013,06,27,05,11,0.00
2013,06,27,05,12,0.00
2013,06,27,05,13,0.00
2013,06,27,05,14,0.00
2013,06,27,05,15,0.00
2013,06,27,05,16,0.00
2013,06,27,05,17,0.00
2013,06,27,05,18,0.00
2013,06,27,05,19,0.00
2013,06,27,05,20,0.00
2013,06,27,05,21,0.00
2013,06,27,05,22,0.00
2013,06,27,05,23,0.00
2013,06,27,05,24,0.00
2013,06,27,05,25,0.00
2013,06,27,05,26,0.00
2013,06,27,05,27,0.00
2013,06,27,05,28,0.00
2013,06,27,05,29,0.00
2013,06,27,05,30,0.00
2013,06,27,05,31,0.00
2013,06,27,05,32,0.00
2013,06,27,05,33,0.00
2013,06,27,05,34,0.00
2013,06,27,05,35,0.00
2013,06,27,05,36,0.00
2013,06,27,05,37,0.00
2013,06,27,05,38,0.00
2013,06,27,05,39,0.00
2013,06,27,05,40,0.00
2013,06,27,05,41,0.50
2013,06,27,05,42,5.00
2013,06,27,05,43,5.00
2013,06,27,05,44,5.00
2013,06,27,05,45,5.00
2013,06,27,05,46,5.00
2013,06,27,05,47,5.00
2013,06,27,05,48,5.00
2013,06,27,05,49,5.00
2013,06,27,05,50,5.00
2013,06,27,05,51,5.00
2013,06,27,05,52,5.00
2013,06,27,05,53,5.90
2013,06,27,05,54,7.00
2013,06,27,05,55,7.00
2013,06,27,05,56,7.00
2013,06,27,05,57,7.00
2013,06,27,05,58,8.90
2013,06,27,05,59,9.00
2013,06,27,06,00,9.00
2013,06,27,06,01,9.00
2013,06,27,06,02,9.00
2013,06,27,06,03,9.00
2013,06,27,06,04,9.00
2013,06,27,06,05,9.00
2013,06,27,06,06,9.00
2013,06,27,06,07,9.00
2013,06,27,06,08,9.00
2013,06,27,06,09,9.60
2013,06,27,06,10,11.00
2013,06,27,06,11,11.00
2013,06,27,06,12,11.60
2013,06,27,06,13,12.00
2013,06,27,06,14,12.00
2013,06,27,06,15,12.00
2013,06,27,06,16,12.30
2013,06,27,06,17,14.00
2013,06,27,06,18,13.30
2013,06,27,06,19,12.00
2013,06,27,06,20,12.00
2013,06,27,06,21,12.00
2013,06,27,06,22,12.00
2013,06,27,06,23,11.10
2013,06,27,06,24,11.00
2013,06,27,06,25,11.00
2013,06,27,06,26,11.00
2013,06,27,06,27,11.40
2013,06,27,06,28,12.00
2013,06,27,06,29,13.20
2013,06,27,06,30,15.40
2013,06,27,06,31,16.00
2013,06,27,06,32,16.10
2013,06,27,06,33,19.00
2013,06,27,06,34,19.00
2013,06,27,06,35,19.00
2013,06,27,06,36,19.80
2013,06,27,06,37,20.00
2013,06,27,06,38,20.20
2013,06,27,06,39,19.50
2013,06,27,06,40,19.00
2013,06,27,06,41,19.00
2013,06,27,06,42,19.00
2013,06,27,06,43,19.00
2013,06,27,06,44,19.00
2013,06,27,06,45,19.00
2013,06,27,06,46,20.20
2013,06,27,06,47,21.00
2013,06,27,06,48,21.00
2013,06,27,06,49,21.00
2013,06,27,06,50,22.10
2013,06,27,06,51,32.00
2013,06,27,06,52,32.30
2013,06,27,06,53,33.00
2013,06,27,06,54,33.00
2013,06,27,06,55,34.30
2013,06,27,06,56,35.00
2013,06,27,06,57,35.00
2013,06,27,06,58,35.10
2013,06,27,06,59,37.30
2013,06,27,07,00,40.50
2013,06,27,07,01,42.80
2013,06,27,07,02,44.90
2013,06,27,07,03,48.80
2013,06,27,07,04,51.00
2013,06,27,07,05,49.50
2013,06,27,07,06,49.00
2013,06,27,07,07,48.80
2013,06,27,07,08,46.00
2013,06,27,07,09,46.30
2013,06,27,07,10,48.80
2013,06,27,07,11,52.60
2013,06,27,07,12,54.00
2013,06,27,07,13,55.40
2013,06,27,07,14,57.60
2013,06,27,07,15,59.80
2013,06,27,07,16,61.80
2013,06,27,07,17,59.00
2013,06,27,07,18,56.00
2013,06,27,07,19,52.80
2013,06,27,07,20,47.90
2013,06,27,07,21,47.00
2013,06,27,07,22,46.20
2013,06,27,07,23,46.00
2013,06,27,07,24,47.00
2013,06,27,07,25,49.40
2013,06,27,07,26,51.80
2013,06,27,07,27,54.00
2013,06,27,07,28,54.00
2013,06,27,07,29,54.00
2013,06,27,07,30,54.00
2013,06,27,07,31,54.00
2013,06,27,07,32,59.40
2013,06,27,07,33,62.00
2013,06,27,07,34,62.00
2013,06,27,07,35,62.90
2013,06,27,07,36,65.00
2013,06,27,07,37,65.00
2013,06,27,07,38,65.00
2013,06,27,07,39,66.50
2013,06,27,07,40,67.00
2013,06,27,07,41,69.00
2013,06,27,07,42,70.00
2013,06,27,07,43,70.00
2013,06,27,07,44,70.00
2013,06,27,07,45,71.00
2013,06,27,07,46,72.00
2013,06,27,07,47,73.30
2013,06,27,07,48,76.20
2013,06,27,07,49,80.40
2013,06,27,07,50,84.10
2013,06,27,07,51,90.00
2013,06,27,07,52,90.00
2013,06,27,07,53,95.70
2013,06,27,07,54,112.50
2013,06,27,07,55,123.60
2013,06,27,07,56,132.80
2013,06,27,07,57,140.90
2013,06,27,07,58,142.40
2013,06,27,07,59,151.00
2013,06,27,08,00,151.00
2013,06,27,08,01,149.20
2013,06,27,08,02,143.90
2013,06,27,08,03,141.00
2013,06,27,08,04,128.70
2013,06,27,08,05,117.70
2013,06,27,08,06,111.50
2013,06,27,08,07,105.10
2013,06,27,08,08,101.70
2013,06,27,08,09,100.00
2013,06,27,08,10,99.20
2013,06,27,08,11,97.50
2013,06,27,08,12,95.80
2013,06,27,08,13,92.30
2013,06,27,08,14,88.70
2013,06,27,08,15,88.00
2013,06,27,08,16,88.00
2013,06,27,08,17,87.20
2013,06,27,08,18,84.00
2013,06,27,08,19,84.90
2013,06,27,08,20,87.00
2013,06,27,08,21,89.90
2013,06,27,08,22,91.00
2013,06,27,08,23,92.70
2013,06,27,08,24,94.80
2013,06,27,08,25,98.60
2013,06,27,08,26,102.00
2013,06,27,08,27,106.20
2013,06,27,08,28,116.30
2013,06,27,08,29,120.00
2013,06,27,08,30,125.60
2013,06,27,08,31,132.60
2013,06,27,08,32,136.60
2013,06,27,08,33,138.20
2013,06,27,08,34,150.30
2013,06,27,08,35,160.10
2013,06,27,08,36,174.10
2013,06,27,08,37,190.00
2013,06,27,08,38,199.00
2013,06,27,08,39,214.40
2013,06,27,08,40,215.30
2013,06,27,08,41,194.10
2013,06,27,08,42,186.30
2013,06,27,08,43,135.00
2013,06,27,08,44,125.10
2013,06,27,08,45,102.00
2013,06,27,08,46,102.00
2013,06,27,08,47,106.60
2013,06,27,08,48,106.00
2013,06,27,08,49,94.80
2013,06,27,08,50,92.60
2013,06,27,08,51,84.00
2013,06,27,08,52,84.00
2013,06,27,08,53,86.50
2013,06,27,08,54,90.50
2013,06,27,08,55,91.00
2013,06,27,08,56,91.00
2013,06,27,08,57,91.00
2013,06,27,08,58,91.00
2013,06,27,08,59,91.00
2013,06,27,09,00,90.80
2013,06,27,09,01,90.00
2013,06,27,09,02,90.00
2013,06,27,09,03,90.50
2013,06,27,09,04,90.40
2013,06,27,09,05,90.00
2013,06,27,09,06,86.80
2013,06,27,09,07,88.10
2013,06,27,09,08,91.00
2013,06,27,09,09,90.20
2013,06,27,09,10,89.70
2013,06,27,09,11,100.20
2013,06,27,09,12,126.10
2013,06,27,09,13,163.50
2013,06,27,09,14,174.00
2013,06,27,09,15,199.20
2013,06,27,09,16,194.40
2013,06,27,09,17,182.90
2013,06,27,09,18,172.20
2013,06,27,09,19,167.30
2013,06,27,09,20,162.40
2013,06,27,09,21,157.00
2013,06,27,09,22,150.00
2013,06,27,09,23,142.40
2013,06,27,09,24,137.20
2013,06,27,09,25,133.40
2013,06,27,09,26,128.20
2013,06,27,09,27,120.20
2013,06,27,09,28,110.10
2013,06,27,09,29,105.00
2013,06,27,09,30,108.70
2013,06,27,09,31,120.00
2013,06,27,09,32,128.90
2013,06,27,09,33,133.70
2013,06,27,09,34,131.10
2013,06,27,09,35,124.90
2013,06,27,09,36,117.70
2013,06,27,09,37,113.50
2013,06,27,09,38,113.00
2013,06,27,09,39,113.70
2013,06,27,09,40,114.00
2013,06,27,09,41,112.80
2013,06,27,09,42,105.90
2013,06,27,09,43,98.30
2013,06,27,09,44,91.20
2013,06,27,09,45,86.20
2013,06,27,09,46,83.50
2013,06,27,09,47,83.60
2013,06,27,09,48,84.00
2013,06,27,09,49,84.00
2013,06,27,09,50,84.20
2013,06,27,09,51,88.80
2013,06,27,09,52,96.10
2013,06,27,09,53,108.90
2013,06,27,09,54,121.30
2013,06,27,09,55,129.90
2013,06,27,09,56,137.30
2013,06,27,09,57,137.50
2013,06,27,09,58,134.40
2013,06,27,09,59,130.00
2013,06,27,10,00,128.80
2013,06,27,10,01,132.60
2013,06,27,10,02,136.00
2013,06,27,10,03,140.00
2013,06,27,10,04,141.60
2013,06,27,10,05,143.40
2013,06,27,10,06,145.60
2013,06,27,10,07,147.80
2013,06,27,10,08,153.50
2013,06,27,10,09,159.00
2013,06,27,10,10,163.00
2013,06,27,10,11,163.90
2013,06,27,10,12,163.90
2013,06,27,10,13,162.40
2013,06,27,10,14,160.50
2013,06,27,10,15,158.30
2013,06,27,10,16,154.10
2013,06,27,10,17,141.60
2013,06,27,10,18,129.90
2013,06,27,10,19,125.80
2013,06,27,10,20,128.60
2013,06,27,10,21,131.10
2013,06,27,10,22,133.30
2013,06,27,10,23,132.40
2013,06,27,10,24,132.00
2013,06,27,10,25,128.20
2013,06,27,10,26,131.20
2013,06,27,10,27,138.10
2013,06,27,10,28,145.60
2013,06,27,10,29,148.50
2013,06,27,10,30,150.30
2013,06,27,10,31,152.40
2013,06,27,10,32,153.00
2013,06,27,10,33,149.10
2013,06,27,10,34,145.30
2013,06,27,10,35,139.50
2013,06,27,10,36,133.20
2013,06,27,10,37,128.70
2013,06,27,10,38,127.00
2013,06,27,10,39,127.70
2013,06,27,10,40,128.00
2013,06,27,10,41,127.10
2013,06,27,10,42,124.30
2013,06,27,10,43,116.70
2013,06,27,10,44,108.00
2013,06,27,10,45,100.20
2013,06,27,10,46,98.00
2013,06,27,10,47,100.60
2013,06,27,10,48,103.50
2013,06,27,10,49,104.00
2013,06,27,10,50,102.20
2013,06,27,10,51,104.40
2013,06,27,10,52,108.40
2013,06,27,10,53,115.70
2013,06,27,10,54,121.30
2013,06,27,10,55,122.00
2013,06,27,10,56,121.00
2013,06,27,10,57,124.20
2013,06,27,10,58,127.60
2013,06,27,10,59,130.40
2013,06,27,11,00,135.90
2013,06,27,11,01,143.70
2013,06,27,11,02,156.60
2013,06,27,11,03,167.70
2013,06,27,11,04,165.60
2013,06,27,11,05,159.30
2013,06,27,11,06,154.10
2013,06,27,11,07,148.50
2013,06,27,11,08,148.00
2013,06,27,11,09,148.00
2013,06,27,11,10,154.90
2013,06,27,11,11,179.10
2013,06,27,11,12,195.00
2013,06,27,11,13,200.00
2013,06,27,11,14,199.20
2013,06,27,11,15,199.00
2013,06,27,11,16,198.90
2013,06,27,11,17,197.30
2013,06,27,11,18,200.40
2013,06,27,11,19,204.70
2013,06,27,11,20,206.00
2013,06,27,11,21,206.00
2013,06,27,11,22,209.20
2013,06,27,11,23,216.30
2013,06,27,11,24,218.00
2013,06,27,11,25,212.40
2013,06,27,11,26,206.80
2013,06,27,11,27,208.00
2013,06,27,11,28,219.50
2013,06,27,11,29,235.00
2013,06,27,11,30,245.40
2013,06,27,11,31,248.00
2013,06,27,11,32,248.00
2013,06,27,11,33,262.70
2013,06,27,11,34,268.70
2013,06,27,11,35,263.20
2013,06,27,11,36,247.50
2013,06,27,11,37,235.00
2013,06,27,11,38,222.10
2013,06,27,11,39,218.00
2013,06,27,11,40,223.60
2013,06,27,11,41,208.90
2013,06,27,11,42,182.80
2013,06,27,11,43,167.60
2013,06,27,11,44,158.60
2013,06,27,11,45,155.00
2013,06,27,11,46,154.00
2013,06,27,11,47,148.80
2013,06,27,11,48,143.10
2013,06,27,11,49,142.00
2013,06,27,11,50,160.10
2013,06,27,11,51,165.40
2013,06,27,11,52,169.00
2013,06,27,11,53,181.70
2013,06,27,11,54,219.00
2013,06,27,11,55,234.00
2013,06,27,11,56,250.80
2013,06,27,11,57,242.00
2013,06,27,11,58,237.00
2013,06,27,11,59,239.50
2013,06,27,12,00,250.90
2013,06,27,12,01,249.00
2013,06,27,12,02,247.50
2013,06,27,12,03,250.00
2013,06,27,12,04,250.00
2013,06,27,12,05,226.70
2013,06,27,12,06,206.60
2013,06,27,12,07,206.20
2013,06,27,12,08,215.60
2013,06,27,12,09,227.60
2013,06,27,12,10,234.80
2013,06,27,12,11,229.00
2013,06,27,12,12,217.00
2013,06,27,12,13,198.50
2013,06,27,12,14,181.50
2013,06,27,12,15,166.80
2013,06,27,12,16,158.40
2013,06,27,12,17,160.00
2013,06,27,12,18,159.50
2013,06,27,12,19,155.50
2013,06,27,12,20,149.50
2013,06,27,12,21,149.60
2013,06,27,12,22,158.50
2013,06,27,12,23,167.30
2013,06,27,12,24,174.90
2013,06,27,12,25,179.00
2013,06,27,12,26,181.40
2013,06,27,12,27,181.50
2013,06,27,12,28,176.30
2013,06,27,12,29,169.50
2013,06,27,12,30,160.70
2013,06,27,12,31,158.00
2013,06,27,12,32,165.30
2013,06,27,12,33,171.80
2013,06,27,12,34,171.90
2013,06,27,12,35,170.50
2013,06,27,12,36,168.30
2013,06,27,12,37,167.00
2013,06,27,12,38,167.00
2013,06,27,12,39,169.50
2013,06,27,12,40,173.30
2013,06,27,12,41,174.00
2013,06,27,12,42,193.10
2013,06,27,12,43,203.70
2013,06,27,12,44,199.60
2013,06,27,12,45,187.80
2013,06,27,12,46,176.50
2013,06,27,12,47,169.20
2013,06,27,12,48,163.50
2013,06,27,12,49,162.00
2013,06,27,12,50,150.30
2013,06,27,12,51,145.30
2013,06,27,12,52,137.70
2013,06,27,12,53,130.70
2013,06,27,12,54,128.00
2013,06,27,12,55,126.40
2013,06,27,12,56,125.00
2013,06,27,12,57,126.50
2013,06,27,12,58,127.80
2013,06,27,12,59,131.90
2013,06,27,13,00,134.00
2013,06,27,13,01,133.50
2013,06,27,13,02,132.00
2013,06,27,13,03,132.00
2013,06,27,13,04,133.10
2013,06,27,13,05,132.70
2013,06,27,13,06,130.50
2013,06,27,13,07,128.30
2013,06,27,13,08,126.90
2013,06,27,13,09,125.00
2013,06,27,13,10,125.00
2013,06,27,13,11,125.80
2013,06,27,13,12,127.00
2013,06,27,13,13,127.60
2013,06,27,13,14,129.30
2013,06,27,13,15,133.20
2013,06,27,13,16,140.30
2013,06,27,13,17,146.40
2013,06,27,13,18,150.80
2013,06,27,13,19,156.00
2013,06,27,13,20,162.80
2013,06,27,13,21,172.60
2013,06,27,13,22,177.20
2013,06,27,13,23,184.60
2013,06,27,13,24,186.00
2013,06,27,13,25,204.40
2013,06,27,13,26,213.00
2013,06,27,13,27,221.60
2013,06,27,13,28,246.70
2013,06,27,13,29,256.10
2013,06,27,13,30,260.00
2013,06,27,13,31,258.60
2013,06,27,13,32,254.00
2013,06,27,13,33,244.90
2013,06,27,13,34,226.30
2013,06,27,13,35,220.00
2013,06,27,13,36,224.60
2013,06,27,13,37,234.90
2013,06,27,13,38,232.00
2013,06,27,13,39,209.10
2013,06,27,13,40,183.00
2013,06,27,13,41,174.90
2013,06,27,13,42,172.10
2013,06,27,13,43,170.10
2013,06,27,13,44,163.20
2013,06,27,13,45,157.20
2013,06,27,13,46,153.70
2013,06,27,13,47,146.80
2013,06,27,13,48,141.90
2013,06,27,13,49,141.00
2013,06,27,13,50,141.90
2013,06,27,13,51,142.00
2013,06,27,13,52,142.40
2013,06,27,13,53,143.40
2013,06,27,13,54,142.00
2013,06,27,13,55,142.00
2013,06,27,13,56,142.00
2013,06,27,13,57,149.70
2013,06,27,13,58,161.00
2013,06,27,13,59,168.60
2013,06,27,14,00,165.90
2013,06,27,14,01,158.20
2013,06,27,14,02,148.70
2013,06,27,14,03,140.70
2013,06,27,14,04,133.10
2013,06,27,14,05,126.90
2013,06,27,14,06,121.20
2013,06,27,14,07,116.40
2013,06,27,14,08,113.90
2013,06,27,14,09,111.00
2013,06,27,14,10,109.80
2013,06,27,14,11,107.70
2013,06,27,14,12,109.00
2013,06,27,14,13,115.60
2013,06,27,14,14,124.90
2013,06,27,14,15,132.70
2013,06,27,14,16,140.60
2013,06,27,14,17,144.60
2013,06,27,14,18,148.60
2013,06,27,14,19,153.10
2013,06,27,14,20,158.00
2013,06,27,14,21,158.00
2013,06,27,14,22,158.00
2013,06,27,14,23,176.90
2013,06,27,14,24,198.00
2013,06,27,14,25,210.90
2013,06,27,14,26,221.40
2013,06,27,14,27,231.00
2013,06,27,14,28,239.80
2013,06,27,14,29,242.60
2013,06,27,14,30,230.70
2013,06,27,14,31,233.90
2013,06,27,14,32,251.00
2013,06,27,14,33,272.20
2013,06,27,14,34,285.00
2013,06,27,14,35,284.20
2013,06,27,14,36,275.60
2013,06,27,14,37,252.80
2013,06,27,14,38,229.50
2013,06,27,14,39,214.90
2013,06,27,14,40,208.20
2013,06,27,14,41,212.70
2013,06,27,14,42,228.50
2013,06,27,14,43,234.00
2013,06,27,14,44,230.80
2013,06,27,14,45,211.70
2013,06,27,14,46,190.90
2013,06,27,14,47,181.00
2013,06,27,14,48,187.00
2013,06,27,14,49,202.80
2013,06,27,14,50,222.30
2013,06,27,14,51,246.50
2013,06,27,14,52,273.00
2013,06,27,14,53,288.00
2013,06,27,14,54,274.00
2013,06,27,14,55,250.40
2013,06,27,14,56,224.20
2013,06,27,14,57,213.00
2013,06,27,14,58,196.20
2013,06,27,14,59,188.40
2013,06,27,15,00,186.00
2013,06,27,15,01,186.40
2013,06,27,15,02,187.40
2013,06,27,15,03,184.70
2013,06,27,15,04,180.90
2013,06,27,15,05,177.10
2013,06,27,15,06,170.80
2013,06,27,15,07,165.60
2013,06,27,15,08,165.20
2013,06,27,15,09,170.10
2013,06,27,15,10,178.90
2013,06,27,15,11,190.60
2013,06,27,15,12,199.00
2013,06,27,15,13,211.60
2013,06,27,15,14,221.00
2013,06,27,15,15,236.00
2013,06,27,15,16,245.30
2013,06,27,15,17,245.70
2013,06,27,15,18,244.60
2013,06,27,15,19,251.00
2013,06,27,15,20,269.30
2013,06,27,15,21,311.00
2013,06,27,15,22,330.40
2013,06,27,15,23,333.00
2013,06,27,15,24,321.80
2013,06,27,15,25,297.20
2013,06,27,15,26,277.40
2013,06,27,15,27,274.20
2013,06,27,15,28,286.30
2013,06,27,15,29,301.00
2013,06,27,15,30,306.00
2013,06,27,15,31,302.80
2013,06,27,15,32,296.40
2013,06,27,15,33,286.40
2013,06,27,15,34,285.00
2013,06,27,15,35,284.40
2013,06,27,15,36,279.60
2013,06,27,15,37,276.00
2013,06,27,15,38,281.50
2013,06,27,15,39,298.40
2013,06,27,15,40,327.30
2013,06,27,15,41,349.30
2013,06,27,15,42,365.60
2013,06,27,15,43,383.00
2013,06,27,15,44,391.00
2013,06,27,15,45,413.30
2013,06,27,15,46,410.50
2013,06,27,15,47,411.00
2013,06,27,15,48,424.00
2013,06,27,15,49,428.40
2013,06,27,15,50,392.70
2013,06,27,15,51,346.50
2013,06,27,15,52,311.00
2013,06,27,15,53,289.40
2013,06,27,15,54,275.70
2013,06,27,15,55,279.10
2013,06,27,15,56,296.30
2013,06,27,15,57,303.40
2013,06,27,15,58,296.70
2013,06,27,15,59,284.60
2013,06,27,16,00,280.10
2013,06,27,16,01,249.30
2013,06,27,16,02,244.70
2013,06,27,16,03,244.90
2013,06,27,16,04,239.30
2013,06,27,16,05,236.00
2013,06,27,16,06,236.00
2013,06,27,16,07,236.00
2013,06,27,16,08,218.90
2013,06,27,16,09,218.80
2013,06,27,16,10,224.80
2013,06,27,16,11,235.00
2013,06,27,16,12,249.80
2013,06,27,16,13,266.40
2013,06,27,16,14,276.70
2013,06,27,16,15,278.00
2013,06,27,16,16,266.90
2013,06,27,16,17,264.50
2013,06,27,16,18,259.40
2013,06,27,16,19,259.20
2013,06,27,16,20,267.80
2013,06,27,16,21,277.30
2013,06,27,16,22,282.20
2013,06,27,16,23,286.40
2013,06,27,16,24,299.30
2013,06,27,16,25,326.30
2013,06,27,16,26,359.90
2013,06,27,16,27,384.20
2013,06,27,16,28,409.10
2013,06,27,16,29,417.00
2013,06,27,16,30,411.60
2013,06,27,16,31,432.80
2013,06,27,16,32,505.60
2013,06,27,16,33,518.40
2013,06,27,16,34,554.80
2013,06,27,16,35,515.70
2013,06,27,16,36,516.20
2013,06,27,16,37,466.00
2013,06,27,16,38,466.00
2013,06,27,16,39,466.00
2013,06,27,16,40,524.80
2013,06,27,16,41,550.00
2013,06,27,16,42,550.00
2013,06,27,16,43,513.20
2013,06,27,16,44,501.70
2013,06,27,16,45,445.00
2013,06,27,16,46,457.40
2013,06,27,16,47,438.30
2013,06,27,16,48,381.20
2013,06,27,16,49,351.00
2013,06,27,16,50,327.20
2013,06,27,16,51,304.90
2013,06,27,16,52,304.00
2013,06,27,16,53,297.20
2013,06,27,16,54,278.30
2013,06,27,16,55,275.20
2013,06,27,16,56,273.80
2013,06,27,16,57,279.30
2013,06,27,16,58,278.60
2013,06,27,16,59,271.70
2013,06,27,17,00,265.30
2013,06,27,17,01,264.10
2013,06,27,17,02,260.60
2013,06,27,17,03,261.20
2013,06,27,17,04,258.50
2013,06,27,17,05,255.80
2013,06,27,17,06,248.70
2013,06,27,17,07,240.40
2013,06,27,17,08,239.20
2013,06,27,17,09,245.60
2013,06,27,17,10,266.20
2013,06,27,17,11,302.70
2013,06,27,17,12,312.20
2013,06,27,17,13,334.00